User: anonymous   Login
Location: Red Shale Campground
(45.5700°N, 106.1600°W)
Time: 01:30:49
(UTC-06:00)
Language:

FENGYUN 3A - Orbit

View from above orbital plane
View from above orbital plane
View from above satellite
View from above satellite

Ground track
Ground track

The orbit data is extracted from the following two-line orbital elements,

1 32958U 08026A   17262.86771176  .00000022  00000-0  29614-4 0  9994
2 32958  98.4024 286.7909 0010072  13.3757 346.7681 14.19673706482769
Epoch (UTC): 19 September 2017 20:49:30
Eccentricity: 0.0010072
inclination: 98.4024°
perigee height: 819 km
apogee height: 834 km
right ascension of ascending node: 286.7909°
argument of perigee: 13.3757°
revolutions per day: 14.19673706
mean anomaly at epoch: 346.7681°
orbit number at epoch: 48276

The dashed part of the orbit path shows where the satellite is in the earth's shadow,  

DLR